Hourly Weather Agen

Today, 23 April, Friday

Time Temperature Precipitation Wind Pressure Humidity
00:00 +9°C° 0 mm 2 mps 757 mmHg 69%
01:00 +8°C° 0 mm 2 mps 757 mmHg 71%
02:00 +8°C° 0 mm 2 mps 757 mmHg 72%
03:00 +8°C° 0 mm 3 mps 757 mmHg 74%
04:00 +8°C° 0 mm 3 mps 757 mmHg 73%
05:00 +8°C° 0 mm 2 mps 757 mmHg 73%
06:00 +8°C° 0 mm 2 mps 757 mmHg 72%
07:00 +11°C° 0 mm 3 mps 757 mmHg 66%
08:00 +13°C° 0 mm 3 mps 757 mmHg 59%
09:00 +17°C° 0 mm 4 mps 757 mmHg 53%
10:00 +19°C° 0 mm 4 mps 757 mmHg 49%
11:00 +20°C° 0 mm 4 mps 757 mmHg 45%
12:00 +22°C° 0 mm 4 mps 756 mmHg 41%
13:00 +22°C° 0 mm 4 mps 756 mmHg 40%
14:00 +23°C° 0 mm 4 mps 756 mmHg 38%
15:00 +23°C° 0 mm 4 mps 755 mmHg 37%
16:00 +22°C° 0 mm 3 mps 755 mmHg 44%
17:00 +20°C° 0 mm 3 mps 755 mmHg 52%
18:00 +19°C° 0 mm 3 mps 755 mmHg 59%
19:00 +17°C° 0 mm 3 mps 756 mmHg 58%
20:00 +16°C° 0 mm 3 mps 756 mmHg 58%
21:00 +13°C° 0 mm 3 mps 756 mmHg 57%
22:00 +12°C° 0 mm 3 mps 756 mmHg 58%
23:00 +11°C° 0 mm 3 mps 756 mmHg 59%

Tomorrow, 24 April, Saturday

Time Temperature Precipitation Wind Pressure Humidity
00:00 +11°C° 0 mm 3 mps 756 mmHg 60%
01:00 +10°C° 0 mm 3 mps 756 mmHg 60%
02:00 +10°C° 0 mm 3 mps 756 mmHg 60%
03:00 +9°C° 0 mm 3 mps 755 mmHg 60%
04:00 +9°C° 0 mm 3 mps 756 mmHg 62%
05:00 +9°C° 0 mm 3 mps 756 mmHg 64%
06:00 +10°C° 0 mm 3 mps 756 mmHg 67%
07:00 +12°C° 0 mm 4 mps 756 mmHg 62%
08:00 +14°C° 0 mm 5 mps 756 mmHg 57%
09:00 +16°C° 0 mm 6 mps 755 mmHg 52%
10:00 +19°C° 0 mm 6 mps 755 mmHg 49%
11:00 +21°C° 0 mm 6 mps 755 mmHg 45%
12:00 +22°C° 0 mm 6 mps 755 mmHg 42%
13:00 +23°C° 0 mm 5 mps 755 mmHg 41%
14:00 +23°C° 0 mm 5 mps 754 mmHg 39%
15:00 +23°C° 0 mm 5 mps 754 mmHg 38%
16:00 +22°C° 0 mm 5 mps 754 mmHg 46%
17:00 +20°C° 0 mm 4 mps 754 mmHg 53%
18:00 +18°C° 0 mm 3 mps 754 mmHg 60%
19:00 +17°C° 0 mm 3 mps 754 mmHg 61%
20:00 +14°C° 0 mm 3 mps 755 mmHg 62%
21:00 +13°C° 0 mm 3 mps 755 mmHg 64%
22:00 +12°C° 0 mm 3 mps 755 mmHg 65%
23:00 +11°C° 0 mm 3 mps 754 mmHg 65%

Day after tomorrow, 25 April, Sunday

Time Temperature Precipitation Wind Pressure Humidity
00:00 +11°C° 0 mm 3 mps 754 mmHg 66%
01:00 +10°C° 0 mm 3 mps 754 mmHg 68%
02:00 +10°C° 0 mm 3 mps 754 mmHg 69%
03:00 +9°C° 0 mm 3 mps 753 mmHg 70%
04:00 +10°C° 0 mm 3 mps 753 mmHg 71%
05:00 +10°C° 0 mm 3 mps 753 mmHg 71%
06:00 +10°C° 0 mm 3 mps 753 mmHg 72%
07:00 +12°C° 0 mm 4 mps 753 mmHg 68%
08:00 +14°C° 0 mm 4 mps 753 mmHg 65%
09:00 +16°C° 0 mm 5 mps 753 mmHg 61%
10:00 +16°C° 0 mm 5 mps 753 mmHg 62%
11:00 +17°C° 0 mm 4 mps 753 mmHg 62%
12:00 +18°C° 0 mm 4 mps 753 mmHg 62%
13:00 +18°C° 0 mm 4 mps 753 mmHg 63%
14:00 +18°C° 0 mm 3 mps 752 mmHg 63%
15:00 +18°C° 0 mm 3 mps 752 mmHg 64%
16:00 +18°C° 0 mm 3 mps 752 mmHg 65%
17:00 +18°C° 0 mm 3 mps 751 mmHg 66%
18:00 +18°C° 0 mm 3 mps 751 mmHg 67%
19:00 +16°C° 0 mm 3 mps 751 mmHg 67%
20:00 +14°C° 0 mm 3 mps 751 mmHg 68%
21:00 +13°C° 0 mm 3 mps 751 mmHg 68%
22:00 +12°C° 0 mm 3 mps 751 mmHg 67%
23:00 +12°C° 0 mm 3 mps 750 mmHg 67%

26 April, Monday

Time Temperature Precipitation Wind Pressure Humidity
00:00 +11°C° 0 mm 3 mps 750 mmHg 66%
01:00 +11°C° 0 mm 3 mps 750 mmHg 67%
02:00 +12°C° 0 mm 2 mps 749 mmHg 68%
03:00 +10°C° 0 mm 2 mps 749 mmHg 69%
04:00 +12°C° 0 mm 2 mps 749 mmHg 70%
05:00 +11°C° 0 mm 3 mps 748 mmHg 71%
06:00 +11°C° 0 mm 3 mps 748 mmHg 71%
07:00 +13°C° 0 mm 4 mps 748 mmHg 71%
08:00 +14°C° 0 mm 4 mps 748 mmHg 70%
09:00 +15°C° 0 mm 5 mps 748 mmHg 69%
10:00 +15°C° 0.2 mm 4 mps 748 mmHg 70%
11:00 +15°C° 0.2 mm 4 mps 747 mmHg 71%
12:00 +17°C° 0.2 mm 3 mps 747 mmHg 73%
13:00 +16°C° 0.4 mm 3 mps 747 mmHg 76%
14:00 +16°C° 0.4 mm 3 mps 746 mmHg 79%
15:00 +16°C° 0.4 mm 2 mps 746 mmHg 82%
16:00 +15°C° 0 mm 2 mps 746 mmHg 82%
17:00 +15°C° 0 mm 2 mps 746 mmHg 82%
18:00 +15°C° 0 mm 2 mps 746 mmHg 82%
19:00 +15°C° 0 mm 2 mps 746 mmHg 82%
20:00 +14°C° 0 mm 2 mps 746 mmHg 81%
21:00 +14°C° 0 mm 2 mps 746 mmHg 81%
22:00 +14°C° 0 mm 2 mps 746 mmHg 81%
23:00 +13°C° 0 mm 2 mps 746 mmHg 82%

27 April, Tuesday

Time Temperature Precipitation Wind Pressure Humidity
00:00 +13°C° 0 mm 2 mps 746 mmHg 82%
01:00 +13°C° 0 mm 2 mps 746 mmHg 83%
02:00 +13°C° 0 mm 1 mps 745 mmHg 84%
03:00 +13°C° 0 mm 1 mps 745 mmHg 85%
04:00 +13°C° 0.2 mm 1 mps 745 mmHg 87%
05:00 +13°C° 0.2 mm 1 mps 745 mmHg 89%
06:00 +12°C° 0.2 mm 1 mps 745 mmHg 91%
07:00 +13°C° 0.4 mm 1 mps 745 mmHg 93%
08:00 +13°C° 0.4 mm 1 mps 746 mmHg 94%
09:00 +13°C° 0.4 mm 2 mps 746 mmHg 95%
10:00 +13°C° 0.3 mm 2 mps 746 mmHg 94%
11:00 +13°C° 0.3 mm 2 mps 746 mmHg 93%
12:00 +14°C° 0.3 mm 2 mps 746 mmHg 93%
13:00 +14°C° 0.1 mm 3 mps 746 mmHg 88%
14:00 +16°C° 0.1 mm 3 mps 746 mmHg 83%
15:00 +17°C° 0.1 mm 3 mps 746 mmHg 78%
16:00 +16°C° 0.3 mm 3 mps 746 mmHg 81%
17:00 +16°C° 0.3 mm 2 mps 746 mmHg 84%
18:00 +15°C° 0.3 mm 2 mps 746 mmHg 87%
19:00 +15°C° 0.2 mm 2 mps 747 mmHg 89%
20:00 +14°C° 0.2 mm 2 mps 747 mmHg 92%
21:00 +13°C° 0.2 mm 2 mps 747 mmHg 94%
22:00 +13°C° 0.1 mm 2 mps 748 mmHg 94%
23:00 +11°C° 0.1 mm 3 mps 748 mmHg 95%

28 April, Wednesday

Time Temperature Precipitation Wind Pressure Humidity
00:00 +10°C° 0.1 mm 3 mps 748 mmHg 95%
01:00 +9°C° 0 mm 2 mps 748 mmHg 95%
02:00 +8°C° 0 mm 2 mps 748 mmHg 95%
03:00 +8°C° 0 mm 2 mps 748 mmHg 94%
04:00 +8°C° 0 mm 2 mps 748 mmHg 94%
05:00 +9°C° 0 mm 1 mps 748 mmHg 93%
06:00 +9°C° 0 mm 1 mps 748 mmHg 92%
07:00 +11°C° 0 mm 1 mps 748 mmHg 85%
08:00 +13°C° 0 mm 2 mps 748 mmHg 78%
09:00 +15°C° 0 mm 2 mps 748 mmHg 70%
10:00 +16°C° 0 mm 2 mps 748 mmHg 63%
11:00 +17°C° 0 mm 2 mps 748 mmHg 56%
12:00 +19°C° 0 mm 2 mps 748 mmHg 49%
13:00 +19°C° 0 mm 2 mps 747 mmHg 50%
14:00 +19°C° 0 mm 3 mps 747 mmHg 50%
15:00 +19°C° 0 mm 3 mps 747 mmHg 51%
16:00 +17°C° 0.2 mm 3 mps 747 mmHg 60%
17:00 +15°C° 0.2 mm 4 mps 747 mmHg 68%
18:00 +13°C° 0.2 mm 4 mps 748 mmHg 77%
19:00 +13°C° 0 mm 4 mps 748 mmHg 78%
20:00 +12°C° 0 mm 3 mps 748 mmHg 79%
21:00 +12°C° 0 mm 3 mps 749 mmHg 80%
22:00 +11°C° 0 mm 3 mps 748 mmHg 78%
23:00 +12°C° 0 mm 2 mps 748 mmHg 76%
Show more